| time (UTC) | temp F | wind direction | speed MPH | gust MPH | rain 1hr in | rain 24hr in | rain mn in | humidity % | barometer mb |
| 20260503203536 | 60 | 338 | 9.0 | 14.0 | 0.00 | 0.00 | 0.00 | 32 | 1014.3 |
| 20260503203047 | 60 | 302 | 5.0 | 13.0 | 0.00 | 0.00 | 0.00 | 32 | 1014.2 |
| 20260503202636 | 60 | 360 | 6.0 | 14.0 | 0.00 | 0.00 | 0.00 | 31 | 1014.3 |
| 20260503202039 | 60 | 256 | 4.0 | 14.0 | 0.00 | 0.00 | 0.00 | 32 | 1014.0 |
| 20260503201547 | 61 | 290 | 7.0 | 17.0 | 0.00 | 0.00 | 0.00 | 29 | 1014.3 |
| 20260503201033 | 60 | 175 | 2.0 | 17.0 | 0.00 | 0.00 | 0.00 | 32 | 1014.3 |
| 20260503200535 | 60 | 269 | 6.0 | 17.0 | 0.00 | 0.00 | 0.00 | 32 | 1014.5 |
| 20260503200047 | 60 | 11 | 4.0 | 10.0 | 0.00 | 0.00 | 0.00 | 33 | 1014.6 |
| 20260503195534 | 60 | 240 | 3.0 | 12.0 | 0.00 | 0.00 | 0.00 | 34 | 1014.5 |
| 20260503195036 | 59 | 277 | 6.0 | 13.0 | 0.00 | 0.00 | 0.00 | 33 | 1014.6 |
| 20260503194549 | 60 | 205 | 6.0 | 13.0 | 0.00 | 0.00 | 0.00 | 33 | 1014.6 |
| 20260503194034 | 59 | 318 | 5.0 | 13.0 | 0.00 | 0.00 | 0.00 | 32 | 1014.6 |
| 20260503193534 | 59 | 296 | 4.0 | 13.0 | 0.00 | 0.00 | 0.00 | 33 | 1014.8 |
| 20260503193055 | 59 | 278 | 6.0 | 15.0 | 0.00 | 0.00 | 0.00 | 32 | 1015.0 |
| 20260503192536 | 59 | 198 | 6.0 | 18.0 | 0.00 | 0.00 | 0.00 | 33 | 1015.0 |
| 20260503192034 | 59 | 229 | 6.0 | 18.0 | 0.00 | 0.00 | 0.00 | 33 | 1015.1 |
| 20260503191548 | 59 | 220 | 6.0 | 15.0 | 0.00 | 0.00 | 0.00 | 35 | 1015.0 |
| 20260503191034 | 58 | 338 | 2.0 | 14.0 | 0.00 | 0.00 | 0.00 | 36 | 1015.1 |
| 20260503190534 | 59 | 220 | 8.0 | 14.0 | 0.00 | 0.00 | 0.00 | 33 | 1015.1 |
| 20260503190051 | 58 | 275 | 6.0 | 14.0 | 0.00 | 0.00 | 0.00 | 33 | 1015.2 |
| 20260503185534 | 58 | 303 | 2.0 | 13.0 | 0.00 | 0.00 | 0.00 | 34 | 1015.4 |
| 20260503185036 | 58 | 14 | 6.0 | 13.0 | 0.00 | 0.00 | 0.00 | 33 | 1015.6 |
| 20260503184555 | 58 | 278 | 5.0 | 13.0 | 0.00 | 0.00 | 0.00 | 33 | 1015.6 |
| 20260503184035 | 58 | 316 | 7.0 | 13.0 | 0.00 | 0.00 | 0.00 | 33 | 1015.7 |
| 20260503183535 | 58 | 290 | 3.0 | 10.0 | 0.00 | 0.00 | 0.00 | 35 | 1015.8 |
| 20260503183043 | 58 | 330 | 1.0 | 10.0 | 0.00 | 0.00 | 0.00 | 36 | 1015.7 |
| 20260503182541 | 58 | 22 | 1.0 | 17.0 | 0.00 | 0.00 | 0.00 | 38 | 1015.7 |
| 20260503182038 | 57 | 239 | 6.0 | 17.0 | 0.00 | 0.00 | 0.00 | 38 | 1015.8 |
| 20260503181543 | 57 | 211 | 7.0 | 17.0 | 0.00 | 0.00 | 0.00 | 35 | 1015.6 |
| 20260503181034 | 57 | 286 | 4.0 | 17.0 | 0.00 | 0.00 | 0.00 | 36 | 1015.7 |
| 20260503180533 | 56 | 279 | 4.0 | 15.0 | 0.00 | 0.00 | 0.00 | 36 | 1015.6 |
| 20260503180043 | 56 | 240 | 4.0 | 15.0 | 0.00 | 0.00 | 0.00 | 36 | 1015.7 |
| 20260503175533 | 57 | 246 | 5.0 | 16.0 | 0.00 | 0.00 | 0.00 | 36 | 1015.8 |
| 20260503175033 | 57 | 332 | 9.0 | 16.0 | 0.00 | 0.00 | 0.00 | 39 | 1015.8 |
| 20260503174603 | 56 | 338 | 5.0 | 19.0 | 0.00 | 0.00 | 0.00 | 40 | 1016.0 |
| 20260503174034 | 56 | 342 | 7.0 | 19.0 | 0.00 | 0.00 | 0.00 | 38 | 1016.0 |
| 20260503173536 | 56 | 250 | 7.0 | 19.0 | 0.00 | 0.00 | 0.00 | 38 | 1016.0 |
| 20260503173050 | 56 | 293 | 5.0 | 13.0 | 0.00 | 0.00 | 0.00 | 36 | 1015.9 |
| 20260503172535 | 56 | 346 | 5.0 | 18.0 | 0.00 | 0.00 | 0.00 | 38 | 1016.1 |
| 20260503172035 | 56 | 333 | 9.0 | 18.0 | 0.00 | 0.00 | 0.00 | 38 | 1016.2 |
| 20260503171545 | 56 | 292 | 4.0 | 17.0 | 0.00 | 0.00 | 0.00 | 40 | 1016.3 |
| 20260503171033 | 54 | 219 | 8.0 | 17.0 | 0.00 | 0.00 | 0.00 | 40 | 1016.3 |
| 20260503170535 | 54 | 360 | 4.0 | 13.0 | 0.00 | 0.00 | 0.00 | 39 | 1016.2 |
| 20260503150535 | 50 | 321 | 8.0 | 18.0 | 0.00 | 0.00 | 0.00 | 47 | 1017.5 |
| 20260503131034 | 46 | 263 | 3.0 | 10.0 | 0.00 | 0.00 | 0.00 | 54 | 1017.6 |
| 20260503130535 | 46 | 339 | 2.0 | 13.0 | 0.00 | 0.00 | 0.00 | 55 | 1017.7 |
| 20260503110535 | 41 | 238 | 3.0 | 11.0 | 0.00 | 0.00 | 0.00 | 64 | 1016.5 |
| 20260503081550 | 41 | 0 | 1.0 | 8.0 | 0.00 | 0.00 | 0.00 | 68 | 1015.4 |
| 20260503081035 | 41 | 249 | 2.0 | 6.0 | 0.00 | 0.00 | 0.00 | 68 | 1015.4 |
| 20260503080539 | 41 | 258 | 2.0 | 6.0 | 0.00 | 0.00 | 0.00 | 68 | 1015.2 |
| 20260503072533 | 41 | 281 | 4.0 | 10.0 | 0.00 | 0.00 | 0.00 | 67 | 1015.1 |
| 20260503072035 | 41 | 295 | 1.0 | 8.0 | 0.00 | 0.00 | 0.00 | 67 | 1014.9 |
| 20260503071547 | 41 | 345 | 1.0 | 8.0 | 0.00 | 0.00 | 0.00 | 67 | 1014.7 |
| 20260503071034 | 41 | 303 | 3.0 | 8.0 | 0.00 | 0.00 | 0.00 | 66 | 1014.7 |
| 20260503070533 | 41 | 238 | 0.0 | 6.0 | 0.00 | 0.00 | 0.00 | 66 | 1014.7 |
| 20260503055033 | 42 | 0 | 0.0 | 8.0 | 0.00 | 0.00 | 0.00 | 66 | 1014.6 |
| 20260503054543 | 42 | 310 | 2.0 | 8.0 | 0.00 | 0.00 | 0.00 | 67 | 1014.6 |
| 20260503054034 | 42 | 0 | 0.0 | 3.0 | 0.00 | 0.00 | 0.00 | 66 | 1014.5 |
| 20260503053533 | 43 | 338 | 1.0 | 5.0 | 0.00 | 0.00 | 0.00 | 66 | 1014.5 |
| 20260503053044 | 43 | 0 | 1.0 | 5.0 | 0.00 | 0.00 | 0.00 | 65 | 1014.4 |
| 20260503052533 | 43 | 0 | 1.0 | 4.0 | 0.00 | 0.00 | 0.00 | 65 | 1014.3 |
| 20260503052035 | 43 | 321 | 0.0 | 4.0 | 0.00 | 0.00 | 0.00 | 65 | 1014.5 |
| 20260503051550 | 43 | 304 | 1.0 | 6.0 | 0.00 | 0.00 | 0.00 | 64 | 1014.6 |
| 20260503051033 | 44 | 315 | 2.0 | 6.0 | 0.00 | 0.00 | 0.00 | 64 | 1014.6 |
| 20260503050536 | 44 | 306 | 1.0 | 8.0 | 0.00 | 0.00 | 0.00 | 64 | 1014.6 |
| 20260503050050 | 44 | 336 | 4.0 | 11.0 | 0.00 | 0.00 | 0.00 | 64 | 1014.6 |
| 20260503045533 | 44 | 339 | 4.0 | 13.0 | 0.00 | 0.00 | 0.00 | 63 | 1014.6 |
| 20260503045034 | 44 | 329 | 6.0 | 14.0 | 0.00 | 0.00 | 0.00 | 63 | 1014.7 |
| 20260503044545 | 44 | 355 | 8.0 | 16.0 | 0.00 | 0.00 | 0.00 | 63 | 1014.7 |
| 20260503044034 | 44 | 324 | 9.0 | 18.0 | 0.00 | 0.00 | 0.00 | 63 | 1014.6 |
| 20260503043533 | 44 | 336 | 10.0 | 18.0 | 0.00 | 0.00 | 0.00 | 63 | 1014.5 |
| 20260503043044 | 44 | 326 | 10.0 | 15.0 | 0.00 | 0.00 | 0.00 | 63 | 1014.3 |
| 20260503042535 | 44 | 329 | 7.0 | 16.0 | 0.00 | 0.00 | 0.00 | 63 | 1014.2 |
| 20260503042031 | 44 | 325 | 9.0 | 17.0 | 0.00 | 0.00 | 0.00 | 63 | 1014.3 |
| 20260503041543 | 45 | 5 | 9.0 | 17.0 | 0.00 | 0.00 | 0.00 | 63 | 1014.3 |
| 20260503041035 | 45 | 330 | 10.0 | 17.0 | 0.00 | 0.00 | 0.00 | 62 | 1014.2 |
| 20260503040534 | 45 | 329 | 6.0 | 16.0 | 0.00 | 0.00 | 0.00 | 63 | 1014.2 |
| 20260503040051 | 45 | 5 | 9.0 | 16.0 | 0.00 | 0.00 | 0.00 | 63 | 1014.2 |
| 20260503035534 | 45 | 305 | 9.0 | 15.0 | 0.00 | 0.00 | 0.00 | 63 | 1014.2 |
| 20260503035035 | 45 | 324 | 8.0 | 15.0 | 0.00 | 0.00 | 0.00 | 63 | 1014.2 |
| 20260503034606 | 44 | 325 | 2.0 | 13.0 | 0.00 | 0.00 | 0.00 | 63 | 1014.3 |
| 20260503034037 | 45 | 321 | 1.0 | 13.0 | 0.00 | 0.00 | 0.00 | 63 | 1014.3 |
| 20260503033538 | 45 | 319 | 5.0 | 13.0 | 0.00 | 0.00 | 0.00 | 63 | 1014.3 |
| 20260503033054 | 45 | 337 | 2.0 | 8.0 | 0.00 | 0.00 | 0.00 | 63 | 1014.3 |
| 20260503032537 | 45 | 20 | 1.0 | 14.0 | 0.00 | 0.00 | 0.00 | 63 | 1014.3 |
| 20260503032038 | 45 | 342 | 4.0 | 14.0 | 0.00 | 0.00 | 0.00 | 63 | 1014.3 |
| 20260503031548 | 44 | 286 | 1.0 | 7.0 | 0.00 | 0.00 | 0.00 | 63 | 1014.4 |
| 20260503031032 | 45 | 307 | 1.0 | 5.0 | 0.00 | 0.00 | 0.00 | 63 | 1014.5 |
| 20260503030534 | 45 | 332 | 2.0 | 5.0 | 0.00 | 0.00 | 0.00 | 63 | 1014.5 |
| 20260503030042 | 45 | 0 | 0.0 | 4.0 | 0.00 | 0.00 | 0.00 | 63 | 1014.4 |
| 20260503025531 | 46 | 0 | 0.0 | 8.0 | 0.00 | 0.00 | 0.00 | 62 | 1014.6 |
| 20260503025031 | 46 | 342 | 3.0 | 8.0 | 0.00 | 0.00 | 0.00 | 60 | 1014.5 |
| 20260503024549 | 46 | 259 | 3.0 | 8.0 | 0.00 | 0.00 | 0.00 | 60 | 1014.5 |
| 20260503024034 | 46 | 305 | 1.0 | 8.0 | 0.00 | 0.00 | 0.00 | 61 | 1014.5 |
| 20260503023534 | 46 | 339 | 3.0 | 8.0 | 0.00 | 0.00 | 0.00 | 60 | 1014.6 |
| 20260503023044 | 46 | 0 | 1.0 | 8.0 | 0.00 | 0.00 | 0.00 | 59 | 1014.5 |
| 20260503022535 | 47 | 355 | 0.0 | 8.0 | 0.00 | 0.00 | 0.00 | 59 | 1014.5 |
| 20260503022035 | 47 | 326 | 3.0 | 8.0 | 0.00 | 0.00 | 0.00 | 58 | 1014.5 |
| 20260503021547 | 47 | 337 | 2.0 | 8.0 | 0.00 | 0.00 | 0.00 | 57 | 1014.5 |
| 20260503021037 | 48 | 0 | 2.0 | 7.0 | 0.00 | 0.00 | 0.00 | 55 | 1014.3 |
| 20260503020534 | 48 | 300 | 2.0 | 7.0 | 0.00 | 0.00 | 0.00 | 55 | 1014.3 |
| 20260503020038 | 48 | 346 | 3.0 | 8.0 | 0.00 | 0.00 | 0.00 | 55 | 1014.3 |
| 20260503015534 | 48 | 325 | 1.0 | 8.0 | 0.00 | 0.00 | 0.00 | 54 | 1014.3 |
| 20260503015033 | 48 | 74 | 3.0 | 8.0 | 0.00 | 0.00 | 0.00 | 54 | 1014.2 |
| 20260503014545 | 49 | 304 | 0.0 | 3.0 | 0.00 | 0.00 | 0.00 | 55 | 1014.2 |
| 20260503014034 | 49 | 0 | 0.0 | 4.0 | 0.00 | 0.00 | 0.00 | 54 | 1014.2 |
| 20260503013532 | 49 | 49 | 1.0 | 4.0 | 0.00 | 0.00 | 0.00 | 53 | 1014.3 |
| 20260503013051 | 50 | 85 | 0.0 | 3.0 | 0.00 | 0.00 | 0.00 | 52 | 1014.1 |
| 20260503012535 | 50 | 319 | 0.0 | 5.0 | 0.00 | 0.00 | 0.00 | 53 | 1014.1 |
| 20260503012033 | 50 | 355 | 0.0 | 5.0 | 0.00 | 0.00 | 0.00 | 50 | 1014.1 |
| 20260503011547 | 50 | 5 | 2.0 | 9.0 | 0.00 | 0.00 | 0.00 | 50 | 1013.9 |
| 20260503011033 | 50 | 32 | 1.0 | 9.0 | 0.00 | 0.00 | 0.00 | 50 | 1013.9 |
| 20260503010534 | 50 | 0 | 0.0 | 12.0 | 0.00 | 0.00 | 0.00 | 50 | 1013.7 |
| 20260503010051 | 51 | 360 | 2.0 | 12.0 | 0.00 | 0.00 | 0.00 | 49 | 1013.6 |
| 20260503005533 | 51 | 340 | 6.0 | 12.0 | 0.00 | 0.00 | 0.00 | 48 | 1013.4 |
| 20260503005034 | 51 | 326 | 2.0 | 9.0 | 0.00 | 0.00 | 0.00 | 47 | 1013.3 |
| 20260503004604 | 51 | 329 | 2.0 | 9.0 | 0.00 | 0.00 | 0.00 | 48 | 1013.2 |
| 20260503004036 | 51 | 333 | 1.0 | 10.0 | 0.00 | 0.00 | 0.00 | 48 | 1013.1 |
| 20260503003533 | 51 | 302 | 5.0 | 10.0 | 0.00 | 0.00 | 0.00 | 47 | 1013.1 |
| 20260503003055 | 51 | 329 | 2.0 | 6.0 | 0.00 | 0.00 | 0.00 | 47 | 1013.0 |
| 20260503002533 | 51 | 0 | 2.0 | 7.0 | 0.00 | 0.00 | 0.00 | 47 | 1012.9 |
| 20260503002034 | 51 | 309 | 3.0 | 7.0 | 0.00 | 0.00 | 0.00 | 47 | 1012.8 |
| 20260503001614 | 51 | 338 | 0.0 | 2.0 | 0.00 | 0.00 | 0.00 | 47 | 1012.9 |
| 20260503001034 | 52 | 0 | 0.0 | 3.0 | 0.00 | 0.00 | 0.00 | 47 | 1012.7 |
| 20260503000534 | 52 | 0 | 0.0 | 3.0 | 0.00 | 0.00 | 0.00 | 45 | 1012.6 |
| 20260503000051 | 52 | 0 | 0.0 | 5.0 | 0.00 | 0.00 | 0.00 | 44 | 1012.6 |
| 20260502235534 | 52 | 0 | 2.0 | 5.0 | 0.00 | 0.00 | 0.00 | 44 | 1012.5 |
| 20260502235034 | 52 | 114 | 0.0 | 6.0 | 0.00 | 0.00 | 0.00 | 45 | 1012.5 |
| 20260502234548 | 52 | 0 | 2.0 | 6.0 | 0.00 | 0.00 | 0.00 | 43 | 1012.3 |
| 20260502234033 | 52 | 168 | 2.0 | 6.0 | 0.00 | 0.00 | 0.00 | 42 | 1012.3 |
| 20260502233533 | 53 | 296 | 0.0 | 6.0 | 0.00 | 0.00 | 0.00 | 44 | 1012.3 |
| 20260502233043 | 53 | 341 | 1.0 | 8.0 | 0.00 | 0.00 | 0.00 | 43 | 1012.2 |
| 20260502232533 | 53 | 285 | 2.0 | 8.0 | 0.00 | 0.00 | 0.00 | 42 | 1012.2 |
| 20260502232034 | 54 | 314 | 3.0 | 8.0 | 0.00 | 0.00 | 0.00 | 43 | 1012.2 |
| 20260502231540 | 54 | 0 | 3.0 | 7.0 | 0.00 | 0.00 | 0.00 | 41 | 1012.1 |
| 20260502231034 | 54 | 355 | 1.0 | 5.0 | 0.00 | 0.00 | 0.00 | 41 | 1012.0 |
| 20260502230538 | 54 | 0 | 1.0 | 5.0 | 0.00 | 0.00 | 0.00 | 42 | 1012.1 |
| 20260502230039 | 54 | 250 | 1.0 | 6.0 | 0.00 | 0.00 | 0.00 | 41 | 1011.9 |
| 20260502225533 | 54 | 298 | 1.0 | 8.0 | 0.00 | 0.00 | 0.00 | 41 | 1011.9 |
| 20260502225033 | 54 | 196 | 2.0 | 12.0 | 0.00 | 0.00 | 0.00 | 41 | 1011.9 |
| 20260502224537 | 54 | 351 | 1.0 | 12.0 | 0.00 | 0.00 | 0.00 | 40 | 1011.8 |
| 20260502224033 | 55 | 271 | 5.0 | 13.0 | 0.00 | 0.00 | 0.00 | 38 | 1011.9 |
| 20260502223533 | 56 | 355 | 4.0 | 13.0 | 0.00 | 0.00 | 0.00 | 40 | 1011.9 |
| 20260502223046 | 55 | 324 | 3.0 | 12.0 | 0.00 | 0.00 | 0.00 | 38 | 1011.9 |
| 20260502222534 | 55 | 284 | 5.0 | 12.0 | 0.00 | 0.00 | 0.00 | 39 | 1011.8 |
| 20260502222034 | 55 | 294 | 3.0 | 10.0 | 0.00 | 0.00 | 0.00 | 41 | 1012.0 |
| 20260502221546 | 56 | 329 | 3.0 | 8.0 | 0.00 | 0.00 | 0.00 | 40 | 1011.8 |
| 20260502221031 | 55 | 307 | 0.0 | 13.0 | 0.00 | 0.00 | 0.00 | 43 | 1011.7 |
| 20260502220534 | 56 | 344 | 4.0 | 13.0 | 0.00 | 0.00 | 0.00 | 41 | 1011.8 |
| 20260502220046 | 56 | 321 | 6.0 | 13.0 | 0.00 | 0.00 | 0.00 | 38 | 1011.8 |
| 20260502215534 | 56 | 286 | 4.0 | 13.0 | 0.00 | 0.00 | 0.00 | 39 | 1011.6 |
| 20260502215034 | 56 | 288 | 4.0 | 11.0 | 0.00 | 0.00 | 0.00 | 41 | 1011.7 |
| 20260502214548 | 56 | 325 | 4.0 | 10.0 | 0.00 | 0.00 | 0.00 | 41 | 1011.7 |
| 20260502214034 | 56 | 321 | 3.0 | 10.0 | 0.00 | 0.00 | 0.00 | 42 | 1011.7 |
| 20260502213534 | 56 | 0 | 1.0 | 10.0 | 0.00 | 0.00 | 0.00 | 42 | 1011.7 |
| 20260502213040 | 56 | 333 | 4.0 | 10.0 | 0.00 | 0.00 | 0.00 | 41 | 1011.7 |
| 20260502212534 | 56 | 284 | 4.0 | 14.0 | 0.00 | 0.00 | 0.00 | 41 | 1011.7 |
| 20260502212035 | 56 | 309 | 6.0 | 15.0 | 0.00 | 0.00 | 0.00 | 40 | 1011.8 |
| 20260502211537 | 56 | 308 | 8.0 | 16.0 | 0.00 | 0.00 | 0.00 | 41 | 1011.8 |
| 20260502211035 | 56 | 23 | 5.0 | 16.0 | 0.00 | 0.00 | 0.00 | 41 | 1011.7 |
| 20260502210534 | 56 | 280 | 8.0 | 15.0 | 0.00 | 0.00 | 0.00 | 40 | 1011.8 |
| 20260502210046 | 56 | 325 | 8.0 | 19.0 | 0.00 | 0.00 | 0.00 | 40 | 1011.7 |
| 20260502205533 | 56 | 26 | 5.0 | 19.0 | 0.00 | 0.00 | 0.00 | 39 | 1011.7 |
| 20260502205037 | 57 | 215 | 5.0 | 15.0 | 0.00 | 0.00 | 0.00 | 40 | 1011.7 |
| 20260502204545 | 57 | 355 | 7.0 | 15.0 | 0.00 | 0.00 | 0.00 | 39 | 1011.7 |
| 20260502204031 | 57 | 26 | 6.0 | 15.0 | 0.00 | 0.00 | 0.00 | 40 | 1011.7 |